TFL1925 EHAM-LATI

Flight info

Callsign TFL1925
Flight time N/A
Altitude 33000
Route EDUPO Z739 MISGO DCT DOJOH DCT DODEN DCT NEGIX DCT DINKU M867 XERUM DCT BAVAX DCT RADIZ DCT LUMUS DCT GORPA DCT TUPUS DCT ELTIB DCT GLOMY DCT PETAK
Aircraft B738/M-SDE2E3FGHIRWXY/LB1

Departure

Time N/A
Airport Amsterdam Airport Schiphol (EHAM)

Arrival

Time 2026-04-27 21:30
Airport Tirana International Airport Mother Teresa (LATI)
Time Latitude Longitude Altitude Speed Heading
2026-04-27 20:48 44.95489 16.16248 33127 ft 490 kts 144°
2026-04-27 20:49 44.89987 16.21841 33149 ft 490 kts 144°
2026-04-27 20:49 44.84453 16.27454 33131 ft 490 kts 144°
2026-04-27 20:50 44.78910 16.33065 33132 ft 490 kts 144°
2026-04-27 20:50 44.73369 16.38659 33150 ft 489 kts 144°
2026-04-27 20:51 44.67841 16.44228 33139 ft 489 kts 144°
2026-04-27 20:51 44.62309 16.49786 33154 ft 489 kts 144°
2026-04-27 20:52 44.56805 16.55304 33144 ft 489 kts 144°
2026-04-27 20:52 44.51270 16.60840 33153 ft 488 kts 144°
2026-04-27 20:53 44.45735 16.66362 33148 ft 488 kts 144°
2026-04-27 20:53 44.40201 16.71871 33155 ft 488 kts 144°
2026-04-27 20:54 44.31935 16.80078 33135 ft 488 kts 144°
2026-04-27 20:55 44.26556 16.85846 33142 ft 487 kts 140°
2026-04-27 20:55 44.21354 16.91932 33145 ft 488 kts 139°
2026-04-27 20:56 44.16158 16.98019 33149 ft 488 kts 139°
2026-04-27 20:56 44.10934 17.04059 33146 ft 488 kts 140°
2026-04-27 20:57 44.05733 17.10027 33146 ft 487 kts 140°
2026-04-27 20:57 44.00500 17.16012 33158 ft 487 kts 140°
2026-04-27 20:58 43.95260 17.21995 33159 ft 487 kts 140°
2026-04-27 20:58 43.90025 17.27959 33148 ft 487 kts 140°
2026-04-27 20:59 43.84781 17.33922 33138 ft 486 kts 140°
2026-04-27 20:59 43.79568 17.39834 33144 ft 486 kts 140°
2026-04-27 21:00 43.74335 17.45756 33147 ft 486 kts 140°
2026-04-27 21:00 43.69088 17.51679 33132 ft 486 kts 140°
2026-04-27 21:01 43.63841 17.57590 33129 ft 486 kts 140°
2026-04-27 21:01 43.58620 17.63459 33111 ft 486 kts 140°
2026-04-27 21:02 43.53274 17.69188 33111 ft 486 kts 144°
2026-04-27 21:02 43.47711 17.74479 33120 ft 486 kts 146°
2026-04-27 21:03 43.42101 17.79714 33104 ft 487 kts 146°
2026-04-27 21:03 43.36541 17.84952 33080 ft 487 kts 145°
2026-04-27 21:04 43.30957 17.90245 33072 ft 488 kts 145°
2026-04-27 21:04 43.25369 17.95541 33080 ft 488 kts 145°
2026-04-27 21:05 43.19778 18.00829 33083 ft 488 kts 145°
2026-04-27 21:05 43.14179 18.06108 32930 ft 489 kts 145°
2026-04-27 21:05 43.11388 18.08734 32466 ft 483 kts 145°
2026-04-27 21:06 43.08634 18.11323 32056 ft 476 kts 145°
2026-04-27 21:06 43.05922 18.13869 31644 ft 470 kts 145°
2026-04-27 21:06 43.03246 18.16379 31246 ft 464 kts 145°
2026-04-27 21:06 43.00602 18.18856 30850 ft 458 kts 145°
2026-04-27 21:07 42.98022 18.21271 30458 ft 453 kts 145°
2026-04-27 21:07 42.95434 18.23690 30039 ft 448 kts 144°
2026-04-27 21:07 42.92878 18.26078 29590 ft 443 kts 144°
2026-04-27 21:07 42.90349 18.28439 29145 ft 438 kts 144°
2026-04-27 21:08 42.87843 18.30774 28683 ft 433 kts 144°
2026-04-27 21:08 42.85348 18.33098 28264 ft 436 kts 144°
2026-04-27 21:08 42.82822 18.35450 27840 ft 442 kts 144°
2026-04-27 21:08 42.80271 18.37822 27430 ft 445 kts 144°
2026-04-27 21:09 42.77705 18.40204 27008 ft 445 kts 144°
2026-04-27 21:09 42.75145 18.42579 26620 ft 445 kts 144°
2026-04-27 21:09 42.72584 18.44951 26215 ft 445 kts 144°
2026-04-27 21:09 42.70022 18.47323 25810 ft 445 kts 144°
2026-04-27 21:10 42.67494 18.49661 25429 ft 445 kts 145°
2026-04-27 21:10 42.64925 18.52034 25043 ft 445 kts 145°
2026-04-27 21:10 42.62365 18.54397 24663 ft 445 kts 145°
2026-04-27 21:10 42.59804 18.56758 24282 ft 443 kts 145°
2026-04-27 21:11 42.57257 18.59103 23908 ft 441 kts 145°
2026-04-27 21:11 42.54732 18.61426 23516 ft 436 kts 145°
2026-04-27 21:11 42.52240 18.63716 23069 ft 430 kts 145°
2026-04-27 21:11 42.49781 18.65973 22598 ft 424 kts 145°
2026-04-27 21:12 42.47353 18.68201 22197 ft 419 kts 146°
2026-04-27 21:12 42.44948 18.70406 21778 ft 416 kts 146°
2026-04-27 21:12 42.42562 18.72591 21372 ft 412 kts 146°
2026-04-27 21:12 42.40187 18.74764 20965 ft 410 kts 146°
2026-04-27 21:13 42.37831 18.76917 20569 ft 407 kts 146°
2026-04-27 21:13 42.35488 18.79056 20182 ft 405 kts 146°
2026-04-27 21:13 42.33189 18.81154 19789 ft 403 kts 146°
2026-04-27 21:13 42.30871 18.83267 19407 ft 401 kts 146°
2026-04-27 21:14 42.28566 18.85365 19024 ft 398 kts 146°
2026-04-27 21:14 42.26276 18.87449 18647 ft 396 kts 146°
2026-04-27 21:14 42.23998 18.89520 18257 ft 394 kts 146°
2026-04-27 21:14 42.21734 18.91577 17828 ft 391 kts 146°
2026-04-27 21:15 42.19478 18.93624 17406 ft 389 kts 146°
2026-04-27 21:15 42.17240 18.95652 16982 ft 386 kts 146°
2026-04-27 21:15 42.15017 18.97666 16569 ft 384 kts 146°
2026-04-27 21:15 42.12802 18.99671 16159 ft 381 kts 146°
2026-04-27 21:16 42.10629 19.01636 15706 ft 371 kts 146°
2026-04-27 21:16 42.08515 19.03546 15200 ft 361 kts 146°
2026-04-27 21:16 42.06454 19.05407 14708 ft 352 kts 146°
2026-04-27 21:16 42.04441 19.07223 14232 ft 345 kts 146°
2026-04-27 21:17 42.02466 19.09004 13736 ft 338 kts 146°
2026-04-27 21:17 42.00558 19.10723 13209 ft 331 kts 146°
2026-04-27 21:17 41.98659 19.12432 12684 ft 326 kts 146°
2026-04-27 21:17 41.96792 19.14111 12169 ft 320 kts 146°
2026-04-27 21:18 41.94951 19.15766 11670 ft 315 kts 146°
2026-04-27 21:18 41.93142 19.17391 11174 ft 311 kts 146°
2026-04-27 21:18 41.91355 19.18996 10690 ft 306 kts 146°
2026-04-27 21:18 41.89595 19.20574 10202 ft 302 kts 146°
2026-04-27 21:19 41.87858 19.22132 9703 ft 298 kts 146°
2026-04-27 21:19 41.86138 19.23673 9175 ft 295 kts 146°
2026-04-27 21:19 41.84444 19.25190 8660 ft 292 kts 146°
2026-04-27 21:20 41.81100 19.28182 7728 ft 285 kts 147°
2026-04-27 21:20 41.79452 19.29654 7416 ft 284 kts 147°
2026-04-27 21:20 41.77813 19.31125 7098 ft 283 kts 144°
2026-04-27 21:20 41.76390 19.32885 6783 ft 282 kts 131°
2026-04-27 21:21 41.75135 19.34908 6475 ft 281 kts 129°
2026-04-27 21:21 41.73915 19.36954 6145 ft 280 kts 129°
2026-04-27 21:21 41.72694 19.38985 5821 ft 279 kts 129°
2026-04-27 21:21 41.71464 19.41002 5495 ft 279 kts 129°
2026-04-27 21:22 41.70232 19.42999 5174 ft 278 kts 129°
2026-04-27 21:22 41.68996 19.44987 4855 ft 277 kts 130°
2026-04-27 21:22 41.67776 19.46938 4538 ft 276 kts 129°
2026-04-27 21:22 41.66542 19.48906 4209 ft 276 kts 129°
2026-04-27 21:23 41.65315 19.50860 4035 ft 270 kts 129°
2026-04-27 21:23 41.64198 19.52854 3990 ft 267 kts 115°
2026-04-27 21:23 41.63816 19.55228 4008 ft 258 kts 89°
2026-04-27 21:23 41.63933 19.57540 3987 ft 239 kts 83°
2026-04-27 21:24 41.64117 19.59663 3977 ft 221 kts 83°
2026-04-27 21:24 41.64285 19.61645 3990 ft 211 kts 83°
2026-04-27 21:24 41.64443 19.63612 4010 ft 214 kts 83°
2026-04-27 21:24 41.64600 19.65599 4015 ft 215 kts 83°
2026-04-27 21:25 41.64454 19.67578 3974 ft 217 kts 118°
2026-04-27 21:25 41.63419 19.68972 3840 ft 220 kts 155°
2026-04-27 21:25 41.61955 19.69426 3676 ft 214 kts 173°
2026-04-27 21:25 41.60478 19.69613 3468 ft 210 kts 175°
2026-04-27 21:26 41.59065 19.69771 3295 ft 197 kts 175°
2026-04-27 21:26 41.57731 19.69926 3086 ft 186 kts 175°
2026-04-27 21:26 41.56443 19.70072 2833 ft 191 kts 175°
2026-04-27 21:26 41.55137 19.70235 2573 ft 184 kts 174°
2026-04-27 21:27 41.53893 19.70402 2323 ft 173 kts 174°
2026-04-27 21:27 41.52728 19.70557 2082 ft 164 kts 174°
2026-04-27 21:27 41.51618 19.70704 1909 ft 157 kts 174°
2026-04-27 21:27 41.50510 19.70851 1690 ft 161 kts 174°
2026-04-27 21:28 41.49393 19.71000 1458 ft 161 kts 174°
2026-04-27 21:28 41.48282 19.71149 1250 ft 160 kts 174°
2026-04-27 21:28 41.47181 19.71296 1041 ft 158 kts 174°
2026-04-27 21:28 41.46116 19.71431 891 ft 154 kts 174°
2026-04-27 21:29 41.45041 19.71565 665 ft 155 kts 173°
2026-04-27 21:29 41.43959 19.71733 405 ft 157 kts 173°
2026-04-27 21:29 41.42871 19.71874 206 ft 156 kts 174°
2026-04-27 21:29 41.41825 19.72014 121 ft 140 kts 174°
2026-04-27 21:30 41.41009 19.72119 132 ft 96 kts 175°
2026-04-27 21:30 41.40668 19.72164 133 ft 21 kts 173°
2026-04-27 21:30 41.40508 19.72189 127 ft 26 kts 173°
2026-04-27 21:30 41.40347 19.72210 131 ft 6 kts 175°
2026-04-27 21:31 41.40275 19.72206 131 ft 12 kts 205°
2026-04-27 21:31 41.40250 19.72133 132 ft 6 kts 257°
2026-04-27 21:31 41.40242 19.72065 132 ft 10 kts 264°
2026-04-27 21:31 41.40257 19.71962 132 ft 12 kts 308°
2026-04-27 21:32 41.40322 19.71894 132 ft 12 kts 324°
2026-04-27 21:32 41.40387 19.71831 131 ft 11 kts 327°
2026-04-27 21:32 41.40476 19.71797 127 ft 17 kts 354°
2026-04-27 21:32 41.40602 19.71781 129 ft 18 kts 354°
2026-04-27 21:33 41.40725 19.71765 127 ft 18 kts 354°
2026-04-27 21:33 41.40842 19.71741 127 ft 17 kts 348°
2026-04-27 21:33 41.40957 19.71715 127 ft 16 kts 351°
2026-04-27 21:33 41.41066 19.71700 129 ft 16 kts 355°
2026-04-27 21:34 41.41173 19.71686 125 ft 15 kts 354°
2026-04-27 21:34 41.41275 19.71671 127 ft 14 kts 354°
2026-04-27 21:34 41.41372 19.71658 126 ft 14 kts 354°
2026-04-27 21:34 41.41465 19.71646 122 ft 13 kts 354°
2026-04-27 21:35 41.41555 19.71634 121 ft 13 kts 354°
2026-04-27 21:35 41.41642 19.71622 121 ft 12 kts 354°
2026-04-27 21:35 41.41727 19.71611 124 ft 12 kts 354°
2026-04-27 21:35 41.41798 19.71601 121 ft 7 kts 353°
2026-04-27 21:36 41.41843 19.71594 122 ft 6 kts 353°
2026-04-27 21:36 41.41869 19.71589 121 ft 3 kts 352°
2026-04-27 21:36 41.41893 19.71585 123 ft 4 kts 352°
2026-04-27 21:36 41.41905 19.71582 119 ft 1 kts 347°
2026-04-27 21:37 41.41913 19.71575 120 ft 3 kts 319°
2026-04-27 21:37 41.41914 19.71564 121 ft 1 kts 260°
2026-04-27 21:37 41.41911 19.71540 121 ft 1 kts 267°
2026-04-27 21:37 41.41910 19.71530 122 ft 1 kts 265°
2026-04-27 21:38 41.41910 19.71523 122 ft 1 kts 265°
2026-04-27 21:38 41.41910 19.71520 122 ft 0 kts 265°